Burns, OR

4:16 PM PDT on April 24, 2017 (GMT -0700)
Burns Municipal

Weather History for KBNO - March, 2013

Change the Weather History Date:

Saturday, March 30, 2013

  Actual Average Record
Temperature  
Mean Temperature 48 °F 40 °F  
Max Temperature 69 °F 53 °F 75 °F (1966)
Min Temperature 26 °F 27 °F 16 °F (2008)
Degree Days  
Heating Degree Days 17 25  
Month to date heating degree days 817 834  
Since 1 July heating degree days 6174 6362  
Cooling Degree Days 0 0  
Month to date cooling degree days 0 0  
Year to date cooling degree days 0 0  
Moisture  
Dew Point 31 °F    
Average Humidity 63    
Maximum Humidity 100    
Minimum Humidity 26    
Precipitation  
Precipitation 0.00 in 0.03 in 0.48 in (1983)
Month to date precipitation 0.18 1.06  
Year to date precipitation 0.92 3.27  
Sea Level Pressure  
Sea Level Pressure 30.18 in    
Wind  
Wind Speed 5 mph (NW)    
Max Wind Speed 9 mph    
Max Gust Speed 14 mph    
Visibility 10 miles    
Events      
T = Trace of Precipitation, MM = Missing Value Source: NWS Daily Summary

Daily Weather History Graph

Daily Weather History Graph

Search for Another Location

Airport or City:

Trip Planner

Search our weather history database for the weather conditions in past years. The results will help you decide how hot, cold, wet, or windy it might be!

Date:

Astronomy

Mar. 30, 2013 Rise Set
Actual Time 6:40 AM PDT 7:20 PM PDT
Civil Twilight 6:11 AM PDT 7:49 PM PDT
Nautical Twilight 5:37 AM PDT 8:23 PM PDT
Astronomical Twilight 5:02 AM PDT 8:59 PM PDT
Moon 11:40 PM PDT (3/30) 8:32 AM PDT (3/30)
Length of Visible Light 13h 37m
Length of Day
12h 40m
Waning Gibbous, 85% of the Moon is Illuminated
Mar 30
Waning Gibbous
Apr 2
Last Quarter
Apr 10
New
Apr 18
First Quarter
Apr 25
Full

Hourly Weather History & Observations

Time (PDT) Temp. Windchill Dew Point Humidity Pressure Visibility Wind Dir Wind Speed Gust Speed Precip Events Conditions
12:53 AM 33.1 °F 27.7 °F 28.9 °F 85% 30.22 in 10.0 mi West 5.8 mph - N/A   Clear
1:53 AM 34.0 °F 28.8 °F 30.9 °F 89% 30.23 in 10.0 mi West 5.8 mph - N/A   Clear
2:53 AM 32.0 °F 25.6 °F 30.0 °F 92% 30.23 in 10.0 mi West 6.9 mph - N/A   Clear
3:53 AM 28.9 °F - 27.0 °F 92% 30.25 in 10.0 mi Calm Calm - N/A   Clear
4:53 AM 27.0 °F 23.0 °F 26.1 °F 96% 30.25 in 10.0 mi NW 3.5 mph - N/A   Clear
5:53 AM 30.0 °F 24.1 °F 28.0 °F 92% 30.24 in 10.0 mi West 5.8 mph - N/A   Clear
6:53 AM 30.9 °F 27.5 °F 28.9 °F 92% 30.24 in 10.0 mi West 3.5 mph - N/A   Clear
7:53 AM 39.0 °F 36.8 °F 34.0 °F 82% 30.25 in 10.0 mi WNW 3.5 mph - N/A   Clear
8:53 AM 48.9 °F - 36.0 °F 61% 30.25 in 10.0 mi Calm Calm - N/A   Clear
9:53 AM 54.0 °F - 36.0 °F 51% 30.25 in 10.0 mi ENE 4.6 mph - N/A   Clear
10:53 AM 59.0 °F - 36.0 °F 42% 30.24 in 10.0 mi Variable 5.8 mph - N/A   Clear
11:53 AM 61.0 °F - 36.0 °F 39% 30.22 in 10.0 mi Calm Calm - N/A   Clear
12:53 PM 62.1 °F - 35.1 °F 37% 30.21 in 10.0 mi Variable 6.9 mph - N/A   Clear
1:53 PM 64.9 °F - 35.1 °F 33% 30.18 in 10.0 mi Variable 5.8 mph - N/A   Partly Cloudy
2:53 PM 66.9 °F - 33.1 °F 28% 30.15 in 10.0 mi WNW 6.9 mph - N/A   Clear
3:53 PM 68.0 °F - 32.0 °F 26% 30.13 in 10.0 mi NNE 5.8 mph - N/A   Clear
4:53 PM 66.0 °F - 30.9 °F 27% 30.13 in 10.0 mi SE 5.8 mph - N/A   Clear
5:53 PM 66.0 °F - 30.9 °F 27% 30.11 in 10.0 mi ENE 4.6 mph - N/A   Clear
6:53 PM 60.1 °F - 30.9 °F 33% 30.11 in 10.0 mi ENE 6.9 mph - N/A   Clear
7:53 PM 48.0 °F - 30.9 °F 52% 30.12 in 10.0 mi NE 6.9 mph - N/A   Clear
8:53 PM 44.1 °F 41.5 °F 30.9 °F 60% 30.11 in 10.0 mi North 4.6 mph - N/A   Clear
9:53 PM 42.1 °F 37.7 °F 30.0 °F 62% 30.10 in 10.0 mi North 6.9 mph - N/A   Clear
10:53 PM 36.0 °F 32.1 °F 28.9 °F 76% 30.09 in 10.0 mi West 4.6 mph - N/A   Clear
11:53 PM 35.1 °F 30.1 °F 30.0 °F 82% 30.09 in 10.0 mi WSW 5.8 mph - N/A   Clear